Camarillo, CA

12:42 AM PST on November 25, 2017 (GMT -0800)
Camarillo

Weather History for KCMA - February, 2013

Change the Weather History Date:

Wednesday, February 13, 2013

  Actual Average Record
Temperature  
Mean Temperature 50 °F 54 °F  
Max Temperature 64 °F 65 °F 89 °F (1971)
Min Temperature 36 °F 42 °F 30 °F (1965)
Degree Days  
Heating Degree Days 15 12  
Month to date heating degree days 151 150  
Since 1 July heating degree days 997 1169  
Cooling Degree Days 0 0  
Month to date cooling degree days 0 0  
Year to date cooling degree days 20 7  
Moisture  
Dew Point 38 °F    
Average Humidity 57    
Maximum Humidity 80    
Minimum Humidity 34    
Precipitation  
Precipitation 0.00 in 0.15 in 4.22 in (1954)
Month to date precipitation T 1.49  
Year to date precipitation 1.07 4.96  
Since 1 July precipitation 3.78  
Sea Level Pressure  
Sea Level Pressure 30.23 in    
Wind  
Wind Speed 3 mph (SW)    
Max Wind Speed 14 mph    
Max Gust Speed 16 mph    
Visibility 10 miles    
Events      
T = Trace of Precipitation, MM = Missing Value Source: NWS Daily Summary

Daily Weather History Graph

Daily Weather History Graph

Search for Another Location

Airport or City:

Trip Planner

Search our weather history database for the weather conditions in past years. The results will help you decide how hot, cold, wet, or windy it might be!

Date:

Astronomy

Feb. 13, 2013 Rise Set
Actual Time 6:42 AM PST 5:38 PM PST
Civil Twilight 6:17 AM PST 6:04 PM PST
Nautical Twilight 5:47 AM PST 6:33 PM PST
Astronomical Twilight 5:18 AM PST 7:02 PM PST
Moon 8:27 AM PST (2/13) 9:32 PM PST (2/13)
Length of Visible Light 11h 47m
Length of Day
10h 55m
Waxing Crescent, 14% of the Moon is Illuminated
Feb 13
Waxing Crescent
Feb 17
First Quarter
Feb 25
Full
Mar 4
Last Quarter
Mar 11
New

Hourly Weather History & Observations

Time (PST) Temp. Dew Point Humidity Pressure Visibility Wind Dir Wind Speed Gust Speed Precip Events Conditions
12:55 AM 41.0 °F 32.0 °F 70% 30.29 in 10.0 mi Calm Calm - N/A   Clear
1:55 AM 39.0 °F 30.9 °F 73% 30.29 in 10.0 mi Calm Calm - N/A   Clear
2:55 AM 39.9 °F 30.9 °F 70% 30.27 in 10.0 mi Calm Calm - N/A   Clear
3:55 AM 42.1 °F 30.9 °F 65% 30.26 in 10.0 mi Calm Calm - N/A   Clear
4:55 AM 37.9 °F 30.0 °F 73% 30.27 in 10.0 mi Calm Calm - N/A   Clear
5:55 AM 37.9 °F 30.0 °F 73% 30.27 in 10.0 mi Calm Calm - N/A   Clear
6:55 AM 37.9 °F 30.0 °F 73% 30.27 in 10.0 mi Calm Calm - N/A   Clear
7:55 AM 46.9 °F 34.0 °F 61% 30.28 in 10.0 mi Calm Calm - N/A   Clear
8:55 AM 53.1 °F 33.1 °F 47% 30.28 in 10.0 mi Calm Calm - N/A   Clear
9:55 AM 57.9 °F 34.0 °F 41% 30.29 in 10.0 mi SSW 5.8 mph - N/A   Clear
10:55 AM 63.0 °F 33.1 °F 33% 30.27 in 10.0 mi SSW 6.9 mph - N/A   Clear
11:55 AM 62.1 °F 42.1 °F 48% 30.25 in 10.0 mi SSW 11.5 mph - N/A   Clear
12:55 PM 62.1 °F 43.0 °F 50% 30.23 in 10.0 mi SW 11.5 mph - N/A   Clear
1:55 PM 63.0 °F 48.0 °F 58% 30.21 in 10.0 mi SW 11.5 mph - N/A   Clear
2:55 PM 64.0 °F 39.9 °F 41% 30.19 in 10.0 mi WSW 9.2 mph - N/A   Clear
3:55 PM 62.1 °F 41.0 °F 46% 30.19 in 10.0 mi SW 8.1 mph - N/A   Clear
4:55 PM 60.1 °F 44.1 °F 55% 30.18 in 10.0 mi SW 4.6 mph - N/A   Clear
5:55 PM 57.0 °F 45.0 °F 64% 30.18 in 10.0 mi Calm Calm - N/A   Clear
6:55 PM 54.0 °F 45.0 °F 72% 30.18 in 10.0 mi Calm Calm - N/A   Clear
7:55 PM 52.0 °F 45.0 °F 77% 30.18 in 10.0 mi East 3.5 mph - N/A   Clear
8:55 PM 48.9 °F 42.1 °F 77% 30.19 in 10.0 mi Calm Calm - N/A   Clear
9:55 PM 51.1 °F 43.0 °F 74% 30.19 in 10.0 mi NNE 3.5 mph - N/A   Clear
10:55 PM 45.0 °F 37.9 °F 76% 30.19 in 10.0 mi Calm Calm - N/A   Clear
11:55 PM 45.0 °F 37.9 °F 76% 30.19 in 10.0 mi Calm Calm - N/A   Clear